{"data":{"norad_id":68739,"epoch":"2026-05-25T04:00:03.998880Z","epoch_age_seconds":70695,"freshness":"FRESH","line1":"1 68739U 26082M   26145.16671295 -.01858210  00000+0 -32953-1 0  9995","line2":"2 68739  97.2857   8.7819 0001615  85.8803   9.2376 15.53627911  5946","mean_motion":15.53627911,"eccentricity":0.0001615,"inclination_deg":97.2857,"raan_deg":8.7819,"arg_perigee_deg":85.8803,"mean_anomaly_deg":9.2376,"bstar":-0.032953,"rev_number":594,"period_min":92.686285422945,"perigee_km":405.04839644519,"apogee_km":407.23971922687,"semimajor_km":6784.281057836,"source":"CELESTRAK","updated_at":"2026-05-25T13:38:22.006823Z"}}